FW8343 Weather Reports


time (UTC)temp
F
wind
direction
speed
knots
gust
knots
rain 1hr
in
rain 24hr
in
rain mn
in
humidity
%
barometer
mb
20260905185519 74 0 0.0 1.7 0.00 0.00 0.00 83 1020.1
20260905185018 73 0 0.0 1.7 0.00 0.00 0.00 84 1020.1
20260905184534 73 0 0.0 3.5 0.00 0.00 0.00 86 1020.3
20260905184016 73 0 0.0 3.5 0.00 0.00 0.00 85 1020.3
20260905183521 72 344 0.0 3.5 0.00 0.00 0.00 84 1020.4
20260905183036 72 0 0.0 3.5 0.00 0.00 0.00 85 1020.3
20260905182523 72 0 0.0 3.5 0.00 0.00 0.00 86 1020.4
20260905182020 71 323 0.0 3.5 0.00 0.00 0.00 87 1020.5
20260905181536 71 0 0.0 0.0 0.00 0.00 0.00 89 1020.3
20260905181020 70 0 0.0 0.0 0.00 0.00 0.00 90 1020.4
20260905180523 70 0 0.0 0.9 0.00 0.00 0.00 88 1020.3
20260905180036 70 0 0.0 0.9 0.00 0.00 0.00 87 1020.4
20260905175521 70 0 0.0 0.9 0.00 0.00 0.00 88 1020.4
20260905175020 70 0 0.0 1.7 0.00 0.00 0.00 89 1020.4
20260905174534 70 0 0.0 1.7 0.00 0.00 0.00 89 1020.5
20260905174018 70 0 0.0 1.7 0.00 0.00 0.00 90 1020.7
20260905173518 69 0 0.0 0.9 0.00 0.00 0.00 90 1020.8
20260905173033 69 0 0.0 0.9 0.00 0.00 0.00 91 1020.8
20260905172520 69 0 0.0 0.9 0.00 0.00 0.00 90 1020.8
20260905172021 69 0 0.0 0.9 0.00 0.00 0.00 92 1020.8
20260905171536 68 0 0.0 0.9 0.00 0.00 0.00 91 1020.7
20260905171022 68 0 0.0 0.0 0.00 0.00 0.00 92 1020.8
20260905170519 68 0 0.0 0.0 0.00 0.00 0.00 92 1020.9
20260905170038 68 0 0.0 0.0 0.00 0.00 0.00 92 1020.9
20260905165518 68 0 0.0 0.9 0.00 0.00 0.00 92 1021.0
20260905165016 68 0 0.0 0.9 0.00 0.00 0.00 92 1021.0
20260905164535 68 0 0.0 2.6 0.00 0.00 0.00 93 1020.9
20260905164018 67 0 0.0 2.6 0.00 0.00 0.00 93 1020.9
20260905163525 67 0 0.0 2.6 0.00 0.00 0.00 93 1021.0
20260905163037 67 0 0.0 1.7 0.00 0.00 0.00 94 1020.9
20260905162522 67 0 0.0 2.6 0.00 0.00 0.00 94 1020.9
20260905162022 67 0 0.0 2.6 0.00 0.00 0.00 95 1021.0
20260905161534 67 0 0.0 2.6 0.00 0.00 0.00 94 1021.0
20260905161020 67 144 0.0 2.6 0.00 0.00 0.00 95 1021.0
20260905160519 67 144 0.9 2.6 0.00 0.00 0.00 94 1020.9
20260905160037 67 144 0.9 2.6 0.00 0.00 0.00 94 1020.8
20260905155520 66 0 0.0 2.6 0.00 0.00 0.00 95 1020.9
20260905155022 66 144 0.0 2.6 0.00 0.00 0.00 94 1020.8
20260905154544 67 0 0.9 2.6 0.00 0.00 0.00 95 1020.9
20260905154018 67 0 0.0 1.7 0.00 0.00 0.00 95 1020.9
20260905153520 67 0 0.0 1.7 0.00 0.00 0.00 96 1020.9
20260905153037 67 0 0.0 2.6 0.00 0.00 0.00 96 1020.7
20260905152520 67 0 0.0 3.5 0.00 0.00 0.00 97 1020.6
20260905152022 67 144 0.0 3.5 0.00 0.00 0.00 97 1020.6
20260905151538 67 144 0.0 2.6 0.00 0.00 0.00 97 1020.5
20260905151017 66 0 0.0 0.9 0.00 0.00 0.00 97 1020.4
20260905150518 66 0 0.0 0.0 0.00 0.00 0.00 97 1020.6
20260905150039 66 0 0.0 0.0 0.00 0.00 0.00 97 1020.6
20260905145527 67 0 0.0 0.0 0.00 0.00 0.00 97 1020.5
20260905145020 67 0 0.0 2.6 0.00 0.00 0.00 98 1020.4
20260905144536 66 0 0.0 2.6 0.00 0.00 0.00 98 1020.4
20260905144019 66 0 0.0 2.6 0.00 0.00 0.00 98 1020.3
20260905143519 66 175 0.0 1.7 0.00 0.00 0.00 99 1020.4
20260905143035 66 0 0.0 1.7 0.00 0.00 0.00 99 1020.3
20260905142517 66 0 0.0 1.7 0.00 0.00 0.00 99 1020.2
20260905142016 66 0 0.0 1.7 0.00 0.00 0.00 99 1020.1
20260905141536 66 0 0.0 1.7 0.00 0.00 0.00 100 1019.8
20260905141023 66 0 0.0 1.7 0.00 0.00 0.00 100 1019.8
20260905140524 66 0 0.0 1.7 0.00 0.00 0.00 100 1019.8
20260905140037 66 0 0.0 0.9 0.00 0.00 0.00 100 1019.6
20260905135519 66 0 0.0 0.9 0.00 0.00 0.00 100 1019.6
20260905135020 66 0 0.0 0.9 0.00 0.00 0.00 100 1019.5
20260905134544 66 0 0.0 0.0 0.00 0.00 0.00 100 1019.5
20260905134020 66 0 0.0 0.0 0.00 0.00 0.00 100 1019.6
20260905133523 65 0 0.0 0.0 0.00 0.00 0.00 100 1019.6
20260905133034 65 0 0.0 0.0 0.00 0.00 0.00 100 1019.8
20260905132519 65 0 0.0 0.0 0.00 0.00 0.00 100 1019.9
20260905132016 65 0 0.0 0.0 0.00 0.00 0.00 100 1019.9
20260905131536 65 0 0.0 0.0 0.00 0.00 0.00 100 1020.0
20260905131020 65 0 0.0 0.0 0.00 0.00 0.00 100 1020.0
20260905130524 65 0 0.0 0.0 0.00 0.00 0.00 100 1019.9
20260905130034 64 0 0.0 0.0 0.00 0.00 0.00 100 1019.7
20260905125519 64 0 0.0 0.0 0.00 0.00 0.00 100 1019.8
20260905125023 64 0 0.0 0.0 0.00 0.00 0.00 100 1019.7
20260905124537 64 0 0.0 0.0 0.00 0.00 0.00 100 1019.7
20260905124017 64 0 0.0 0.0 0.00 0.00 0.00 100 1019.8
20260905123516 64 0 0.0 0.0 0.00 0.00 0.00 100 1019.8
20260905123036 64 0 0.0 0.0 0.00 0.00 0.00 100 1019.7
20260905122522 64 0 0.0 0.0 0.00 0.00 0.00 100 1019.7
20260905122016 64 0 0.0 0.0 0.00 0.00 0.00 100 1019.5
20260905121535 64 0 0.0 0.0 0.00 0.00 0.00 100 1019.4
20260905121021 64 0 0.0 0.0 0.00 0.00 0.00 100 1019.2
20260905120525 64 0 0.0 0.0 0.00 0.00 0.00 100 1019.1
20260905120035 63 0 0.0 0.0 0.00 0.00 0.00 100 1019.1
20260905115518 63 0 0.0 0.0 0.00 0.00 0.00 100 1018.9
20260905115020 63 0 0.0 0.0 0.00 0.00 0.00 100 1019.0
20260905114537 63 0 0.0 0.0 0.00 0.00 0.00 100 1018.9
20260905114021 63 0 0.0 0.0 0.00 0.00 0.00 100 1018.7
20260905113519 63 0 0.0 0.0 0.00 0.00 0.00 100 1018.7
20260905113037 63 0 0.0 0.0 0.00 0.00 0.00 100 1018.6
20260905112516 63 0 0.0 0.0 0.00 0.00 0.00 100 1018.5
20260905112022 63 0 0.0 0.0 0.00 0.00 0.00 100 1018.4
20260905111538 63 0 0.0 0.0 0.00 0.00 0.00 100 1018.4
20260905111026 63 0 0.0 0.0 0.00 0.00 0.00 100 1018.4
20260905110521 63 0 0.0 0.0 0.00 0.00 0.00 100 1018.3
20260905110036 64 0 0.0 0.0 0.00 0.00 0.00 100 1018.3
20260905105521 64 0 0.0 0.0 0.00 0.00 0.00 100 1018.3
20260905105021 63 0 0.0 0.0 0.00 0.00 0.00 100 1018.2
20260905104536 63 0 0.0 0.0 0.00 0.00 0.00 100 1018.1
20260905104020 63 0 0.0 0.0 0.00 0.00 0.00 100 1018.3
20260905103519 63 0 0.0 0.9 0.00 0.00 0.00 100 1018.3
20260905103044 63 0 0.0 0.9 0.00 0.00 0.00 100 1018.2
20260905102519 63 0 0.0 0.0 0.00 0.00 0.00 100 1018.3
20260905102019 63 0 0.0 0.0 0.00 0.00 0.00 100 1018.4
20260905101537 63 0 0.0 0.0 0.00 0.00 0.00 100 1018.4
20260905101019 63 0 0.0 0.0 0.00 0.00 0.00 99 1018.5
20260905100519 63 0 0.0 0.0 0.00 0.00 0.00 99 1018.5
20260905100040 63 0 0.0 0.0 0.00 0.00 0.00 99 1018.5
20260905095521 63 0 0.0 0.0 0.00 0.00 0.00 99 1018.6
20260905095020 63 0 0.0 0.0 0.00 0.00 0.00 99 1018.6
20260905094537 63 0 0.0 0.0 0.00 0.00 0.00 99 1018.5
20260905094019 63 0 0.0 0.0 0.00 0.00 0.00 99 1018.5
20260905093522 63 0 0.0 0.0 0.00 0.00 0.00 99 1018.5
20260905093048 63 0 0.0 0.0 0.00 0.00 0.00 99 1018.5
20260905092521 63 0 0.0 0.0 0.00 0.00 0.00 99 1018.7
20260905092019 63 0 0.0 0.9 0.00 0.00 0.00 99 1018.6
20260905091537 63 0 0.0 0.9 0.00 0.00 0.00 99 1018.6
20260905091022 63 0 0.0 0.9 0.00 0.00 0.00 99 1018.6
20260905090518 63 0 0.0 0.9 0.00 0.00 0.00 99 1018.6
20260905090038 63 0 0.0 0.0 0.00 0.00 0.00 99 1018.7
20260905085521 63 0 0.0 1.7 0.00 0.00 0.00 99 1018.8
20260905085018 63 0 0.0 1.7 0.00 0.00 0.00 99 1018.8
20260905084536 63 0 0.0 0.0 0.00 0.00 0.00 99 1018.8
20260905084021 63 0 0.0 0.0 0.00 0.00 0.00 99 1018.7
20260905083520 63 0 0.0 0.9 0.00 0.00 0.00 99 1018.7
20260905083034 63 0 0.0 0.9 0.00 0.00 0.00 99 1018.8
20260905082521 63 0 0.0 0.0 0.00 0.00 0.00 99 1018.8
20260905082021 63 0 0.0 0.0 0.00 0.00 0.00 100 1018.8
20260905081536 63 0 0.0 0.0 0.00 0.00 0.00 99 1018.7
20260905081019 63 0 0.0 0.0 0.00 0.00 0.00 99 1018.7
20260905080519 63 0 0.0 0.0 0.00 0.00 0.00 99 1018.7
20260905080040 63 0 0.0 0.0 0.00 0.00 0.00 99 1018.6
20260905075518 63 0 0.0 0.0 0.00 0.00 0.00 99 1018.7
20260905075021 63 0 0.0 0.0 0.00 0.00 0.00 99 1018.7
20260905074534 63 0 0.0 0.0 0.00 0.00 0.00 99 1018.7
20260905074019 63 0 0.0 0.0 0.00 0.00 0.00 99 1018.7
20260905073524 63 0 0.0 0.0 0.00 0.00 0.00 99 1018.7
20260905073034 63 0 0.0 0.0 0.00 0.00 0.00 99 1018.7
20260905072521 63 0 0.0 0.0 0.00 0.00 0.00 99 1018.7
20260905072019 63 0 0.0 0.0 0.00 0.00 0.00 99 1018.5
20260905071537 63 0 0.0 0.0 0.00 0.00 0.00 99 1018.5
20260905071024 63 0 0.0 0.0 0.00 0.00 0.00 99 1018.5
20260905070520 63 0 0.0 0.0 0.00 0.00 0.00 99 1018.5
20260905070037 63 0 0.0 0.0 0.00 0.00 0.00 99 1018.5
20260905065517 63 0 0.0 0.0 0.00 0.00 0.00 99 1018.6
20260905065018 63 0 0.0 0.0 0.00 0.00 0.00 99 1018.5
20260905064536 63 0 0.0 0.0 0.00 0.00 0.00 99 1018.4
20260905064023 63 0 0.0 0.0 0.00 0.00 0.00 99 1018.4
20260905063520 63 0 0.0 0.0 0.00 0.00 0.00 99 1018.4
20260905063034 63 0 0.0 0.0 0.00 0.00 0.00 99 1018.4
20260905062520 63 0 0.0 0.0 0.00 0.00 0.00 99 1018.6
20260905062020 63 0 0.0 0.9 0.00 0.00 0.00 99 1018.5
20260905061536 63 0 0.0 0.9 0.00 0.00 0.00 99 1018.5
20260905061020 63 0 0.0 0.0 0.00 0.00 0.00 99 1018.5
20260905060520 63 0 0.0 0.9 0.00 0.00 0.00 99 1018.4
20260905060033 64 0 0.0 0.9 0.00 0.00 0.00 99 1018.4
20260905055519 64 344 0.0 0.9 0.00 0.00 0.00 99 1018.4
20260905055020 64 0 0.0 0.0 0.00 0.00 0.00 99 1018.3
20260905054536 64 0 0.0 0.0 0.00 0.00 0.00 99 1018.3
20260905054016 64 0 0.0 0.0 0.00 0.00 0.00 99 1018.2
20260905053521 64 0 0.0 0.0 0.00 0.00 0.00 99 1018.2
20260905053036 64 0 0.0 0.0 0.00 0.00 0.00 99 1018.2
20260905052519 63 0 0.0 0.0 0.00 0.00 0.00 99 1018.3
20260905052023 63 0 0.0 0.0 0.00 0.00 0.00 99 1018.3
20260905051533 63 0 0.0 1.7 0.00 0.00 0.00 99 1018.3
20260905051019 63 0 0.0 1.7 0.00 0.00 0.00 99 1018.4
20260905050522 63 344 0.0 1.7 0.00 0.00 0.00 99 1018.4
20260905050037 63 0 0.0 0.9 0.00 0.00 0.00 99 1018.4
20260905045518 63 0 0.0 2.6 0.00 0.00 0.00 99 1018.4
20260905045019 63 0 0.0 2.6 0.00 0.00 0.00 99 1018.3
20260905044543 63 0 0.0 2.6 0.00 0.00 0.00 99 1018.3
20260905044021 63 0 0.0 1.7 0.00 0.00 0.00 98 1018.3
20260905043520 63 0 0.0 2.6 0.00 0.00 0.00 98 1018.3
20260905043047 64 0 0.0 2.6 0.00 0.00 0.00 98 1018.3
20260905042519 64 344 0.0 1.7 0.00 0.00 0.00 98 1018.4
20260905042021 64 0 0.0 1.7 0.00 0.00 0.00 98 1018.4
20260905041534 64 0 0.0 0.0 0.00 0.00 0.00 98 1018.3
20260905041020 64 0 0.0 0.0 0.00 0.00 0.00 98 1018.4
20260905040520 64 0 0.0 0.0 0.00 0.00 0.00 98 1018.4
20260905040037 64 0 0.0 0.0 0.00 0.00 0.00 98 1018.3
20260905035518 64 0 0.0 0.0 0.00 0.00 0.00 98 1018.4
20260905035017 64 0 0.0 0.0 0.00 0.00 0.00 98 1018.4
20260905034537 64 0 0.0 0.0 0.00 0.00 0.00 98 1018.3
20260905034020 64 0 0.0 0.9 0.00 0.00 0.00 98 1018.4
20260905033521 64 0 0.0 0.9 0.00 0.00 0.00 98 1018.4
20260905033035 64 0 0.0 1.7 0.00 0.00 0.00 98 1018.4
20260905032520 64 0 0.0 1.7 0.00 0.00 0.00 98 1018.4
20260905032023 64 0 0.0 0.0 0.00 0.00 0.00 98 1018.4
20260905031542 64 0 0.0 0.0 0.00 0.00 0.00 98 1018.5
20260905031020 64 0 0.0 0.0 0.00 0.00 0.00 98 1018.4
20260905030520 64 0 0.0 0.0 0.00 0.00 0.00 97 1018.4
20260905030037 64 0 0.0 0.0 0.00 0.00 0.00 97 1018.3
20260905025517 64 0 0.0 0.0 0.00 0.00 0.00 97 1018.4
20260905025020 64 0 0.0 0.0 0.00 0.00 0.00 97 1018.3
20260905024534 64 0 0.0 0.0 0.00 0.00 0.00 97 1018.4
20260905024020 64 0 0.0 0.0 0.00 0.00 0.00 97 1018.2
20260905023520 64 0 0.0 0.9 0.00 0.00 0.00 97 1018.1
20260905023035 64 0 0.0 1.7 0.00 0.00 0.00 97 1018.1
20260905022518 64 0 0.0 1.7 0.00 0.00 0.00 97 1018.1
20260905022018 65 0 0.0 1.7 0.00 0.00 0.00 97 1018.1
20260905021537 65 0 0.0 1.7 0.00 0.00 0.00 97 1018.1
20260905021022 65 0 0.0 1.7 0.00 0.00 0.00 97 1018.1
20260905020523 65 299 0.0 0.9 0.00 0.00 0.00 97 1018.0
20260905020046 65 0 0.0 0.0 0.00 0.00 0.00 97 1018.1
20260905015521 65 0 0.0 0.0 0.00 0.00 0.00 97 1018.1
20260905015023 65 0 0.0 0.0 0.00 0.00 0.00 97 1018.1
20260905014533 65 0 0.0 0.0 0.00 0.00 0.00 97 1018.1
20260905014016 65 0 0.0 0.0 0.00 0.00 0.00 96 1018.1
20260905013519 65 0 0.0 0.0 0.00 0.00 0.00 96 1018.1
20260905013046 65 0 0.0 0.0 0.00 0.00 0.00 96 1018.0
20260905012523 65 0 0.0 0.0 0.00 0.00 0.00 96 1018.0
20260905012023 65 0 0.0 0.9 0.00 0.00 0.00 96 1018.0
20260905011605 65 0 0.0 0.9 0.00 0.00 0.00 96 1018.0
20260905011020 65 0 0.0 1.7 0.00 0.00 0.00 95 1017.9
20260905010520 65 0 0.0 1.7 0.00 0.00 0.00 95 1017.6
20260905010033 65 0 0.0 0.0 0.00 0.00 0.00 95 1017.5
20260905005521 65 0 0.0 0.0 0.00 0.00 0.00 96 1017.5
20260905005021 65 0 0.0 0.0 0.00 0.00 0.00 96 1017.5
20260905004536 65 0 0.0 0.9 0.00 0.00 0.00 95 1017.5
20260905004018 65 0 0.0 0.9 0.00 0.00 0.00 95 1017.4
20260905003516 65 0 0.0 0.9 0.00 0.00 0.00 95 1017.5
20260905003037 65 0 0.0 1.7 0.00 0.00 0.00 95 1017.3
20260905002520 66 0 0.0 2.6 0.00 0.00 0.00 94 1017.3
20260905002021 66 0 0.0 2.6 0.00 0.00 0.00 94 1017.2
20260905001545 66 0 0.0 2.6 0.00 0.00 0.00 94 1017.3
20260905001022 66 0 0.0 1.7 0.00 0.00 0.00 94 1017.3
20260905000520 66 0 0.0 1.7 0.00 0.00 0.00 94 1017.2
20260905000037 66 0 0.0 1.7 0.00 0.00 0.00 93 1017.2
20260904235517 66 0 0.0 3.5 0.00 0.00 0.00 94 1017.2
20260904235025 66 0 0.0 3.5 0.00 0.00 0.00 94 1017.3
20260904234538 66 0 0.0 1.7 0.00 0.00 0.00 94 1017.2
20260904234016 67 0 0.0 0.9 0.00 0.00 0.00 94 1017.2
20260904233516 67 0 0.0 0.9 0.00 0.00 0.00 94 1017.1
20260904233035 67 291 0.0 1.7 0.00 0.00 0.00 93 1017.1
20260904232520 67 0 0.0 1.7 0.00 0.00 0.00 93 1017.2
20260904232021 67 0 0.0 1.7 0.00 0.00 0.00 93 1017.2
20260904231535 67 0 0.0 1.7 0.00 0.00 0.00 93 1017.1
20260904231021 67 0 0.0 1.7 0.00 0.00 0.00 93 1017.0
20260904230521 67 0 0.0 1.7 0.00 0.00 0.00 93 1016.9
20260904230038 67 0 0.0 2.6 0.00 0.00 0.00 94 1016.9
20260904225522 67 0 0.0 2.6 0.00 0.00 0.00 94 1016.8
20260904225020 67 0 0.0 1.7 0.00 0.00 0.00 94 1016.7
20260904224536 67 0 0.0 2.6 0.00 0.00 0.00 94 1016.7
20260904224018 67 0 0.0 2.6 0.00 0.00 0.00 94 1016.8
20260904223518 67 0 0.0 2.6 0.00 0.00 0.00 94 1016.7
20260904223034 67 291 0.0 2.6 0.00 0.00 0.00 94 1016.8
20260904222516 67 0 0.0 2.6 0.00 0.00 0.00 94 1016.7
20260904222017 67 0 0.0 2.6 0.00 0.00 0.00 94 1016.7
20260904221534 68 308 0.0 2.6 0.00 0.00 0.00 94 1016.6
20260904221020 68 0 0.0 2.6 0.00 0.00 0.00 94 1016.5
20260904220521 68 175 0.0 2.6 0.00 0.00 0.00 93 1016.5
20260904220037 68 0 0.0 2.6 0.00 0.00 0.00 93 1016.4
20260904215520 69 0 0.0 2.6 0.00 0.00 0.00 93 1016.3
20260904215019 69 0 0.0 2.6 0.00 0.00 0.00 93 1016.3
20260904214537 69 0 0.0 2.6 0.00 0.00 0.00 92 1016.3
20260904214019 69 278 0.0 1.7 0.00 0.00 0.00 91 1016.3
20260904213518 70 0 0.0 1.7 0.00 0.00 0.00 91 1016.2
20260904213036 70 0 0.0 1.7 0.00 0.00 0.00 91 1016.2
20260904212519 70 0 0.0 1.7 0.00 0.00 0.00 91 1016.2
20260904212023 71 0 0.0 0.9 0.00 0.00 0.00 91 1016.2
20260904211534 71 0 0.0 0.9 0.00 0.00 0.00 91 1016.1
20260904211021 71 0 0.0 1.7 0.00 0.00 0.00 91 1016.1
20260904210520 71 0 0.0 1.7 0.00 0.00 0.00 90 1015.9
20260904210036 71 0 0.0 1.7 0.00 0.00 0.00 90 1016.1
20260904205525 71 0 0.0 1.7 0.00 0.00 0.00 90 1016.0
20260904205021 72 0 0.0 1.7 0.00 0.00 0.00 91 1016.0
20260904204537 72 0 0.0 2.6 0.00 0.00 0.00 91 1015.9
20260904204020 72 0 0.0 2.6 0.00 0.00 0.00 91 1015.8
20260904203519 72 0 0.0 1.7 0.00 0.00 0.00 90 1015.9
20260904203037 72 271 0.0 1.7 0.00 0.00 0.00 91 1015.8
20260904202518 72 0 0.0 0.9 0.00 0.00 0.00 90 1015.8
20260904202017 72 0 0.0 0.9 0.00 0.00 0.00 90 1015.8
20260904201534 72 0 0.0 2.6 0.00 0.00 0.00 90 1015.8
20260904201017 72 0 0.0 3.5 0.00 0.00 0.00 90 1015.8
20260904200521 72 0 0.0 3.5 0.00 0.00 0.00 90 1015.9
20260904200036 73 0 0.0 3.5 0.00 0.00 0.00 89 1015.9
20260904195521 73 0 0.0 1.7 0.00 0.00 0.00 89 1015.9
20260904195019 73 0 0.0 1.7 0.00 0.00 0.00 90 1015.8
20260904194539 73 0 0.0 1.7 0.00 0.00 0.00 90 1015.7
20260904194020 73 0 0.0 1.7 0.00 0.00 0.00 91 1015.8
20260904193519 73 0 0.0 1.7 0.00 0.00 0.00 91 1015.8
20260904193034 73 0 0.0 1.7 0.00 0.00 0.00 90 1015.6
20260904192517 73 0 0.0 2.6 0.00 0.00 0.00 91 1015.7
20260904192020 73 0 0.0 2.6 0.00 0.00 0.00 91 1015.7
20260904191535 73 0 0.0 2.6 0.00 0.00 0.00 90 1015.7
20260904191020 73 0 0.0 1.7 0.00 0.00 0.00 90 1015.7
20260904190520 73 0 0.0 1.7 0.00 0.00 0.00 90 1015.6
20260904190035 73 0 0.0 3.5 0.00 0.00 0.00 89 1015.6